This is the latest recevied weather packets stored in our database for station/object IW0REF-9. If no packets are shown the sender has not sent any weather packets the latest 10 day(s).
| Time | Temp. | Humidity | Pressure | Rain* | Wind** | Luminosity | Snow |
|---|---|---|---|---|---|---|---|
| 1777916070 | 20.56° C | 28% | 1001.3 hPa | - | - | - | - |
| 1777915169 | 20.56° C | 28% | 1001.3 hPa | - | - | - | - |
| 1777914268 | 20.56° C | 27% | 1001.3 hPa | - | - | - | - |
| 1777913368 | 21.67° C | 26% | 1001.2 hPa | - | - | - | - |
| 1777912467 | 21.67° C | 25% | 1001.2 hPa | - | - | - | - |
| 1777911567 | 22.22° C | 24% | 1001.4 hPa | - | - | - | - |
| 1777910666 | 23.33° C | 24% | 1001.5 hPa | - | - | - | - |
| 1777909766 | 22.22° C | 24% | 1001.4 hPa | - | - | - | - |
| 1777908865 | 22.78° C | 23% | 1001.5 hPa | - | - | - | - |
| 1777907965 | 23.33° C | 23% | 1001.6 hPa | - | - | - | - |
| 1777907064 | 23.33° C | 23% | 1001.6 hPa | - | - | - | - |
| 1777906164 | 23.33° C | 22% | 1001.7 hPa | - | - | - | - |
| 1777905264 | 23.33° C | 21% | 1001.7 hPa | - | - | - | - |
| 1777904362 | 23.33° C | 21% | 1001.6 hPa | - | - | - | - |
| 1777903461 | 23.89° C | 21% | 1001.7 hPa | - | - | - | - |
| 1777902561 | 24.44° C | 20% | 1001.8 hPa | - | - | - | - |
| 1777901660 | 25.56° C | 19% | 1001.9 hPa | - | - | - | - |
| 1777900759 | 25° C | 20% | 1002 hPa | - | - | - | - |
| 1777899858 | 26.11° C | 20% | 1002.1 hPa | - | - | - | - |
| 1777898958 | 26.11° C | 20% | 1002.2 hPa | - | - | - | - |
| 1777898058 | 26.11° C | 21% | 1002.4 hPa | - | - | - | - |
| 1777897157 | 26.67° C | 22% | 1002.5 hPa | - | - | - | - |
| 1777896257 | 26.11° C | 22% | 1002.7 hPa | - | - | - | - |
| 1777895356 | 25.56° C | 23% | 1002.7 hPa | - | - | - | - |
| 1777894455 | 25.56° C | 23% | 1002.7 hPa | - | - | - | - |
* Rain since midnight (hover to see other rain measurements)
** Current wind speed in m/s (hover to see current wind gust speed)